星链-31313 (STARLINK-31313 )

导读 | 豆包AI

STARLINK-31313是美国星链计划中的一颗卫星,于2024年2月29日发射升空。星链项目旨在构建全球卫星互联网星座,为全球偏远地区、海洋空域等提供高速低延迟网络服务。该卫星的成功入轨,进一步扩充了星链星座的规模,推动了星链全球覆盖网络的建设进程,延续了星链系统的部署节奏。

基本信息
目录编号:
59088
目录名称:
STARLINK-31313
国际标识:
2024-041Q
轨道中心:
EARTH
卫星名称:
星链-31313
卫星全名:
星链-31313 (STARLINK-31313 )
卫星状态:
在轨 (已飞行791 天)
发射日期:
2024-02-29 UTC
国别 :
美国 (US)
星等 :
--
轨道信息
数据来源 国际轨道数据
星历时间: 2026-04-30T17:57:00+0800
12小时前
查看轨道信息
半长轴: 6861.125km
偏心率: 0.0001396
轨道倾角: 43.006°
近地点辐角 274.633°
升交点赤经 18.462°
平近点角 85.436°
近地点: 482.03km
远地点: 483.946km
周期: 94.265分钟
每日圈数: 15.276005
详细信息
固有亮度:
5
最大亮度:
0.3
卫星平台:
Starlink v2.0 mini
覆盖范围:
全球
运营商:
太空探索技术公司
运营商所在国:
美国
制造商(研发单位):
太空探索技术公司
制造商所在国:
美国
使用方式:
暂无
卫星简介
星链(Starlink)计划是由太空探索技术公司(SpaceX)提出的一个巨型低轨卫星互联网星座项目,计划在2019年至2024年间在太空搭建由约1.2万颗卫星组成的“星链”网络,其中1584颗将部署在地球上空550千米处的近地轨道,并从2020年开始工作。该卫星仍在工作。
2D轨道图
3D轨道图
轨道高度分析图
轨道倾角分析图
轨道综合分析图
查看轨道综合分析图